Terminal Aerodrome Forecast
Issued by NWS Cleveland, OH

Home | Current Version | Previous Version | Text Only | Print | Product List | Glossary On
Versions: 1 2 3 4 5 6 7 8 9 10 11 12 13 14 15 16 17 18 19 20 21 22 23
000
FTUS41 KCLE 271000 AAD
TAFYNG
TAF AMD
KYNG 271048Z 2711/2806 30004KT 3SM BR BKN008 OVC015
      TEMPO 2711/2713 2SM BR
     FM271400 34006KT P6SM BKN015
     FM271900 35008KT P6SM SCT030
     FM280000 02005KT P6SM SCT250=

USA.gov is the U.S. government's official web portal to all federal, state and local government web resources and services.